PulseSat

PulseSat

COSMOS 2513

Last updated on April 20, 2019, 3:02 a.m. UTC

1 41121U 15075A   19109.81646468 -.00000157  00000-0  00000+0 0  9993
2 41121   0.0609 102.9810 0003246 294.0493 184.7536  1.00271068 12375
UTC
Height (km)
Latitude
Longitude
Inclination
Orbital Period

Next 30 passes for location: Hong Kong

Rise time Rise Azimuth (degrees) Set time Set Azimuth (degrees) Duration Max altitude (degrees)

No matching passes for this satellites

PulseSat

PulseSat is the new satellites software and hardware trackering solution by Pulsely.
Satellite Two Line Element Set source: US Air Force Space Command

Download PulseSat for iOS
© 2017 Pulsely Limited